Location: Cedar Brake
(32.2526°N, 97.8459°W)
Time: 20:08:46
(UTC+00:00)

Meteor 1-31 Rocket - Pass Details

Date: 22 April 2026
Orbit: 454 x 472 km, 97.6° (Epoch: 21 May)

Event Time Altitude Azimuth Distance (km) Brightness Sun altitude
Exits shadow 02:42:48 37° 192° (SSW) 752 3.3 -19.9°
Maximum altitude 02:44:00 64° 259° (W) 529 2.8 -20.1°
Drops below altitude 10° 02:47:30 10° 341° (NNW) 1,642 5.9 -20.7°
Sets 02:49:35 0° 345° (NNW) 2,522 6.9 -21.1°
